Flag for Canada Weather past 2 weeks in Halton Hills, Ontario, Canada

Now
73 °F

Broken clouds.


Feels Like: 76 °F
Forecast: 49 / 65 °F
Wind: 15 mph from Southwest

Location: Toronto Pearson International Airport

Current Time: Sep 20, 2014 at 8:16:02 PM

Latest Report: Sep 20, 2014 at 7:00 PM


Visibility: 15 mi

Pressure: 29.79 "Hg

Humidity: 61%

Dew point: 59 °F

Location of Halton HillsLocation

Historic Weather in Halton Hills — Graph

°F

Halton Hills temperature yesterday

Maximum temperature yesterday: 57 °F (at 4:00 PM)
Minimum temperature yesterday: 41 °F (at 2:00 AM)
Average temperature yesterday: 49 °F

Past Weeks' High & Low Weather Summary

 TemperatureHumidityPressure
High84 °F (Sep 5, 7:00 PM)94% (Sep 5, 10:00 PM)30.36 "Hg (Sep 5, 10:00 PM)
Low41 °F (Sep 19, 2:00 AM)41% (Sep 8, 4:00 PM)29.52 "Hg (Sep 11, 4:00 AM)
Average59 °F73%30.09 "Hg
* Reported Sep 5 7:00 PM — Sep 20 7:00 PM, Halton Hills, Weather by CustomWeather, © 2014

Note: Actual official high and low records may vary slightly from our data, if they occured in-between our weather recording intervals... More about our weather records

Advertising

Halton Hills weather history for previous 24 hours

 ConditionsComfort  
Time TempWeatherWind HumidityBarometerVisibility
7:00 PM
Sep 20
73 °FBroken clouds.15 mph61%29.79 "Hg15 mi
6:00 PM75 °FBroken clouds.21 mph57%29.82 "Hg15 mi
5:00 PM77 °FPartly sunny.23 mph51%29.83 "Hg15 mi
4:00 PM77 °FPartly sunny.18 mph54%29.85 "Hg15 mi
3:00 PM77 °FScattered clouds.23 mph54%29.85 "Hg15 mi
2:00 PM75 °FScattered clouds.24 mph54%29.86 "Hg15 mi
1:00 PM73 °FPartly sunny.21 mph61%29.89 "Hg15 mi
9:00 AM61 °FFog.8 mph94%30.00 "Hg6 mi
8:00 AM61 °FFog.8 mph88%30.01 "Hg6 mi
7:00 AM55 °FFog.7 mph94%30.02 "Hg6 mi
6:00 AM52 °FPassing clouds.No wind88%30.02 "Hg12 mi
5:00 AM54 °FPassing clouds.2 mph88%30.03 "Hg15 mi
4:00 AM52 °FPassing clouds.3 mph88%30.02 "Hg15 mi
3:00 AM48 °FPassing clouds.No wind87%30.05 "Hg15 mi
2:00 AM50 °FPassing clouds.No wind88%30.06 "Hg15 mi
1:00 AM50 °FPassing clouds.5 mph88%30.07 "Hg15 mi
12:00 AM54 °FPassing clouds.No wind82%30.09 "Hg15 mi
11:00 PM
Sep 19
54 °FPassing clouds.3 mph88%30.11 "Hg15 mi
10:00 PM54 °FPassing clouds.3 mph82%30.13 "Hg15 mi
9:00 PM52 °FPassing clouds.7 mph82%30.15 "Hg14 mi
8:00 PM52 °FPartly sunny.7 mph77%30.19 "Hg15 mi
Weather by CustomWeather, © 2014

See weather overviewHow to use our weather pages